SCP
0 0 0 0 0 0 0 0 0 0 0 1 1 1 0 0 0 0 0 0 0 0 0 0 0 0 0 0 0 0 0 0 0 0 0 0 0 0 0 0 0 0 0
1 0 0 0 0 0 0 0 0 0 0 0 1 1 1 0 0 0 0 0 0 0 0 0 0 0 0 0 0 0 0 0 0 0 0 0 0 0 0 0 0 0 0
1 1 1 1 1 1 1 0 0 0 0 1 1 1 1 0 0 0 0 0 0 0 0 0 0 0 0 0 0 0 0 0 0 0 0 0 0 0 0 0 0 0 0
1 1 1 1 1 1 1 1 0 0 0 1 1 1 1 1 0 0 0 0 0 0 0 0 0 0 0 0 0 0 0 0 0 0 0 0 0 0 0 0 0 0 0
1 1 1 1 1 1 1 1 0 0 0 1 1 1 1 1 0 0 0 0 0 0 0 0 0 0 0 0 0 0 0 0 0 0 0 0 0 0 0 0 0 0 0
1 1 1 1 1 1 1 1 1 0 0 0 1 1 1 1 1 0 0 0 0 0 0 0 0 0 0 0 0 0 0 0 0 0 0 0 0 0 0 0 0 0 0
1 1 1 1 1 1 1 1 1 0 0 0 0 1 1 1 1 0 0 0 0 0 0 0 0 0 0 0 0 0 0 0 0 0 0 0 0 0 0 0 0 0 0
0 0 0 1 1 1 1 1 1 1 0 0 0 0 1 1 1 0 0 0 0 0 0 0 0 0 0 0 0 0 0 0 0 0 0 0 0 0 0 0 0 0 0
0 0 0 0 0 1 1 2 1 1 0 0 0 0 0 1 1 1 0 0 0 0 0 0 0 0 0 0 0 0 0 0 0 0 0 0 0 0 0 0 0 0 0
0 0 0 0 0 1 1 2 1 1 0 0 0 0 0 1 1 1 0 0 0 0 0 0 0 0 0 0 0 0 0 0 0 0 0 0 0 0 0 0 0 0 0
0 0 0 0 0 1 1 1 1 1 1 0 0 0 0 0 1 1 1 0 0 0 0 0 0 0 0 0 0 0 0 0 0 0 0 0 0 0 0 0 0 0 0
0 0 0 0 0 0 1 1 1 1 1 1 0 0 0 0 0 1 1 0 0 0 0 0 0 0 0 0 0 0 0 0 0 0 0 0 0 0 0 0 0 0 0
0 0 0 0 0 0 1 1 1 1 1 1 1 1 0 0 0 0 0 0 0 0 0 0 0 0 0 0 0 0 0 0 0 0 0 0 0 0 0 0 0 0 0
0 0 0 0 0 0 0 1 1 1 1 1 1 1 1 1 0 0 0 0 0 0 0 0 0 0 0 0 0 0 0 0 0 0 0 0 0 0 0 0 0 0 0
0 0 0 0 0 0 0 0 0 1 1 1 1 1 1 1 1 0 0 0 0 0 0 0 0 0 0 0 0 0 0 0 0 0 0 0 0 0 0 0 0 0 0
0 0 0 0 0 0 0 0 0 0 1 2 2 2 1 1 1 1 1 0 0 0 0 0 0 0 0 0 0 0 0 0 0 0 0 0 0 0 0 0 0 0 0
0 0 0 0 0 0 0 0 0 0 1 1 2 2 2 1 1 1 1 1 0 0 0 0 0 0 0 0 0 0 0 0 0 0 0 0 0 0 0 0 0 0 0
0 0 0 0 0 0 0 0 0 0 0 1 2 2 2 2 1 1 1 1 0 0 0 0 0 0 0 0 0 0 0 0 0 0 0 0 0 0 0 0 0 0 0
0 0 0 0 0 0 1 1 1 0 0 1 2 2 2 2 1 1 1 0 0 0 0 0 0 0 0 0 0 0 0 0 0 0 0 0 0 0 0 0 0 0 0
0 0 0 0 1 1 1 1 1 0 0 1 1 2 2 2 2 1 0 0 0 0 0 0 0 0 0 0 0 0 0 0 0 0 0 0 0 0 0 0 0 0 0
0 0 0 0 1 1 1 1 1 0 0 0 1 2 2 2 2 1 0 0 0 0 0 0 0 0 0 0 0 0 0 0 0 0 0 0 0 0 0 0 0 0 0
0 0 0 0 1 1 1 1 0 0 0 0 0 1 2 2 1 1 0 0 0 0 0 0 0 0 0 0 0 0 0 0 0 0 0 0 0 0 0 0 0 0 0
0 0 0 0 0 0 0 0 0 0 0 0 0 1 1 2 1 1 0 0 0 0 0 0 0 0 0 0 0 0 0 0 0 0 0 0 0 0 0 0 0 0 0
0 0 0 0 0 0 0 0 0 0 0 0 0 0 1 2 2 1 0 0 0 0 0 0 0 0 0 0 0 0 0 0 0 0 0 0 0 0 0 0 0 0 0
0 0 0 0 0 0 0 0 0 0 0 0 0 1 1 2 2 1 0 0 0 0 0 0 0 0 0 0 0 0 0 0 0 0 0 0 0 0 0 0 0 0 0
0 0 0 0 0 0 0 0 0 0 0 0 0 1 2 2 2 1 0 0 0 0 0 0 0 0 0 0 0 0 0 0 0 0 0 0 0 0 0 0 0 0 0
Wind_Speed
4 2 3 2 3 2 3 4 4 3 3 2 2 2 1 1 1 1 2 2 3 4 4 3 2 2 3 3 3 3 4 2 1 3 3 3 4 4 3 3 4 5 5
2 2 3 2 3 4 4 3 4 3 3 2 2 2 2 1 1 1 1 2 3 3 4 4 3 3 3 3 3 3 2 1 1 2 2 2 3 4 4 3 3 3 3
6 4 4 4 3 4 5 4 4 4 3 3 2 3 3 2 2 1 1 0 2 2 2 3 3 3 3 3 2 2 3 2 1 1 2 2 1 2 3 3 3 3 3
5 4 4 4 5 5 4 4 4 4 3 4 4 4 3 2 2 1 1 1 1 2 2 3 3 3 2 3 3 2 2 3 1 1 1 2 2 2 1 2 2 3 3
5 5 5 5 4 4 3 4 4 4 4 4 4 4 3 2 1 1 1 1 1 1 2 3 3 3 2 3 3 2 2 2 2 2 1 1 2 2 2 1 2 2 2
3 3 3 3 2 2 3 4 4 3 4 4 4 5 5 4 3 2 2 1 0 1 1 2 2 3 2 3 3 3 3 2 2 2 2 2 2 2 2 1 1 1 2
1 1 2 3 3 3 3 4 5 4 3 4 4 4 5 5 4 4 3 2 2 1 2 2 2 2 2 3 3 3 3 3 3 2 2 2 2 2 2 2 1 0 2
1 1 3 3 4 4 4 4 5 4 4 4 4 3 4 3 3 4 3 4 3 3 3 3 3 3 3 3 3 2 3 3 3 3 2 2 2 2 3 3 3 1 1
0 1 1 2 2 2 3 4 5 4 4 4 4 3 3 3 3 3 3 3 2 2 3 3 3 3 3 3 3 2 2 2 2 2 3 2 1 2 2 2 3 3 1
0 0 0 1 1 2 2 2 3 3 3 3 4 3 3 3 3 3 3 3 3 2 3 3 4 3 3 3 3 2 2 2 2 2 2 2 1 2 2 2 2 2 3
0 0 0 0 0 1 1 2 2 2 2 3 3 3 3 3 3 3 3 3 3 3 3 3 3 3 3 3 3 3 3 3 2 2 2 2 2 2 2 2 2 2 2
0 0 0 1 1 1 1 1 1 2 2 2 2 2 2 3 3 3 4 3 3 3 3 3 3 3 3 3 4 3 3 3 3 3 3 3 2 2 2 2 3 2 3
1 1 1 1 0 0 0 1 2 2 2 2 2 2 2 3 4 4 4 3 3 3 3 3 3 4 3 4 4 4 4 4 4 4 4 4 3 3 3 3 3 2 2
0 1 1 0 0 1 1 1 1 1 1 2 2 2 2 3 3 3 3 3 3 3 3 4 4 4 4 4 4 4 4 4 4 4 4 4 5 5 5 4 4 3 3
1 1 1 1 1 1 1 1 1 1 1 2 2 2 2 1 2 2 2 2 3 3 3 3 3 3 3 4 4 4 4 4 3 3 3 4 5 6 5 4 5 5 4
1 1 1 1 1 1 2 1 2 1 1 2 2 2 1 1 1 2 2 2 2 2 2 3 3 3 4 6 7 5 4 4 4 3 3 3 4 6 7 7 7 8 6
2 1 2 2 2 2 2 2 2 1 1 2 2 1 1 1 1 1 1 2 3 2 3 3 3 4 4 6 6 7 4 4 4 4 3 3 3 4 3 5 6 7 9
2 2 2 2 2 1 1 1 0 0 0 1 1 1 1 1 1 1 1 2 2 2 2 3 3 3 4 6 6 6 4 3 4 4 5 4 4 4 4 3 3 3 5
2 2 2 2 1 1 1 1 1 1 0 1 2 2 2 2 2 2 3 2 1 1 2 2 3 3 4 5 5 4 2 2 3 4 4 4 4 6 6 5 4 3 3
1 1 1 0 1 1 0 1 1 1 1 2 3 2 2 2 3 4 3 2 2 2 2 2 2 3 4 4 4 4 2 2 2 2 3 5 6 6 6 5 5 5 4
2 1 1 1 1 1 1 1 0 1 3 3 2 1 1 2 3 2 2 2 2 1 1 2 2 3 4 4 5 5 3 4 3 2 2 3 6 6 7 6 5 7 4
2 1 1 1 1 1 1 0 2 3 2 1 1 1 1 2 1 1 1 1 1 2 1 1 2 2 3 4 4 5 5 5 4 3 3 3 5 6 6 5 5 6 3
1 1 1 2 2 1 1 2 3 3 1 1 1 2 2 1 1 1 1 1 1 1 2 2 2 3 2 3 5 5 5 5 3 3 4 4 5 4 4 5 5 3 2
1 1 1 2 3 3 2 3 3 2 1 1 2 2 1 1 1 1 1 1 1 2 2 2 3 3 2 2 2 2 2 3 3 2 2 3 3 2 2 2 2 2 3
2 2 2 3 4 3 3 3 2 1 1 1 2 2 1 1 2 2 2 2 3 3 3 3 3 2 3 4 4 3 2 3 3 2 1 1 1 1 1 1 1 1 2
2 2 2 3 3 3 3 3 2 1 1 1 1 1 1 1 1 1 2 3 3 3 3 3 3 3 4 4 4 5 4 4 4 3 2 2 3 3 3 3 2 2 3
Wind_Direction
234 208 195 180 169 166 162 165 161 162 146 130 132 127 134 114 84 91 121 125 125 125 122 117 108 106 109 114 111 104 89 72 68 76 48 25 30 35 24 21 29 26 23
221 210 195 183 184 188 180 169 170 169 167 160 153 143 135 125 117 80 80 107 130 137 140 136 134 127 114 107 111 109 103 75 50 95 85 26 4 5 16 18 24 17 19
206 211 202 200 192 196 192 186 184 176 173 152 116 88 71 57 58 56 58 103 136 136 136 143 137 139 140 146 145 133 126 129 50 65 118 121 221 330 350 9 16 13 17
207 206 203 202 205 209 197 186 181 176 171 156 150 148 153 166 189 174 169 144 128 138 136 140 142 147 146 153 167 153 140 134 136 75 69 119 151 140 347 341 357 8 12
210 208 208 205 208 202 190 184 175 173 166 163 166 157 158 172 147 116 128 129 130 142 150 152 154 160 160 167 172 158 155 150 153 151 135 103 80 105 141 288 331 351 350
223 214 208 193 191 181 179 175 170 178 167 165 167 169 171 164 147 154 168 178 184 182 179 164 169 175 173 179 184 176 171 173 161 161 154 152 152 170 156 176 263 313 320
170 190 197 196 195 187 190 182 172 178 171 168 178 186 184 176 180 186 191 192 197 208 207 185 188 186 190 190 178 172 183 183 180 181 180 176 177 158 152 147 167 305 314
155 185 199 196 200 200 195 183 178 179 173 178 190 188 185 182 196 198 196 201 207 212 202 193 197 195 190 189 176 179 191 181 187 192 183 178 186 167 164 160 151 133 330
188 224 202 182 195 201 201 189 183 183 186 189 189 189 189 189 199 201 197 206 214 210 197 195 194 198 195 189 177 185 196 178 188 193 185 182 188 174 173 162 157 154 176
33 241 193 192 198 190 183 153 166 181 180 181 192 193 197 200 198 188 199 207 210 201 187 191 192 195 196 189 178 180 186 175 194 184 172 183 184 169 162 159 156 155 162
331 263 302 81 139 130 139 155 172 164 167 185 199 196 197 202 197 198 209 209 201 197 197 196 187 190 193 189 183 189 182 186 200 192 183 204 178 170 170 156 153 161 153
0 247 91 71 54 71 137 169 183 193 196 191 189 203 205 201 202 212 215 207 202 201 201 194 191 199 196 187 184 193 188 193 204 207 194 212 184 186 178 170 178 182 177
27 31 58 68 59 345 261 214 199 206 199 171 172 193 208 208 214 222 220 210 203 202 199 193 200 206 200 192 197 196 195 199 206 204 203 210 186 200 193 184 186 188 176
60 55 30 348 260 241 258 266 250 213 178 156 162 193 222 225 223 219 215 210 201 200 207 209 212 208 199 197 201 199 202 205 209 209 208 204 197 204 195 190 190 177 164
18 21 327 321 318 324 320 308 294 264 190 166 184 224 236 236 231 221 218 213 210 217 212 209 218 212 202 208 202 197 199 203 213 218 217 214 210 208 196 189 184 174 171
318 314 304 297 286 278 275 283 283 265 197 191 210 221 216 217 240 237 218 209 215 221 210 213 216 219 227 225 210 197 195 199 205 217 225 228 223 224 215 208 192 182 179
278 272 250 241 252 260 256 257 262 256 196 215 226 210 205 219 232 249 237 230 222 209 216 220 213 223 238 231 219 210 193 196 206 209 213 229 223 212 207 216 213 207 207
276 277 271 268 262 267 281 284 323 12 221 276 289 272 238 247 248 222 234 243 230 216 223 229 221 224 244 239 230 218 199 201 211 211 209 214 225 209 187 179 190 211 219
252 250 248 251 278 302 310 1 21 17 314 273 273 270 247 241 239 237 243 241 222 235 231 230 223 228 253 245 229 207 187 204 224 226 218 215 220 216 191 169 184 219 247
286 279 283 282 306 301 357 90 37 40 291 271 267 264 246 235 233 233 235 231 216 227 234 246 238 231 245 248 231 208 184 201 223 231 231 230 225 219 200 186 185 211 235
317 340 354 300 265 272 136 122 26 279 274 283 282 292 272 252 247 244 239 213 202 207 225 248 263 255 252 253 238 215 194 202 208 222 235 236 230 223 216 205 202 220 219
332 347 351 304 290 269 152 217 264 269 284 296 294 289 283 273 285 255 260 229 183 191 224 256 283 279 271 260 248 231 219 203 194 218 227 229 225 222 221 218 225 223 207
282 292 274 293 301 282 207 228 269 283 296 312 296 285 286 283 260 229 227 233 202 208 231 230 255 275 279 268 257 244 233 218 205 216 220 223 219 214 216 219 215 201 178
262 264 277 291 294 289 264 249 271 274 262 268 277 279 269 290 297 267 229 218 222 234 244 241 248 261 269 267 265 253 233 222 222 229 227 230 224 218 221 217 213 205 196
257 247 247 259 273 279 278 276 268 248 233 257 278 283 274 272 288 293 263 241 234 225 227 238 232 237 260 264 250 224 216 203 199 178 156 162 168 184 209 212 206 200 200
248 253 257 261 271 276 283 285 271 226 211 257 278 271 263 265 268 280 310 298 270 276 269 261 246 246 250 271 259 246 241 227 199 170 179 205 207 209 211 213 221 218 216